STARLINK-32494, 62053

Orbit data source: Space-Track

STARLINK-32494, 62053 is a payload satellite owned by SpaceX/Seattle (US) in LEO that was launched on Thu, 21 Nov 2024 UTC via an FALCON 9 launch vehicle from the Air Force Eastern Test Range (AFETR). Payloads include a variety of satellites, spacecraft, and rockets equipped with specific instruments for various scientific and technological missions. These include communications satellites like Starlink; space stations such as the ISS; scientific satellites like the Hubble; Earth observation satellites from companies like Planet Labs, Umbra, and HawkEye 360; GPS; miniature CubeSats for education and research; and military/defense satellites.

Loading next visibility...
STARLINK-32494 details
Identifier
62053, 2024-216X
Orbit
LEO
Last TLE update9 hours ago
Origin
Flag of USSpaceX/Seattle (US)
ManufacturerSpaceX/Seattle
MissionOperational spacecraft
Bus & MotorSTARLINK V2M, Unknown motor
Mass730 kg wet, ~700 kg dry
Launch date (UTC)
2024-11-21 (1 month ago)
Launch vehicle
FALCON 9
Launch site
Air Force Eastern Test Range (AFETR)
Object type
Payload
Rocket body
Debris
Shape & HBRUnknown
Radar Cross SectionLarge (>1 m²)

Expand to show TLE details & history

TLE from 9 hours ago
0 STARLINK-32494
1 62053U 24216X   24361.07221151  .00002036  00000-0  56008-4 0  9990
2 62053  42.9992 234.2710 0001427 269.4732  90.5961 15.40687225  5396
Epoch: 2024-12-26T01:43Z
Definitive object data (Epoch: 2024-12-26T01:43:59.074Z)
Latitude-0.00002°
Longitude113.21798°
Altitude443.864 km
Speed7.648 km/s
True Right ascension15h 37m 05s
True Declination0° 00' 00"
Sunlit
Object was in daylight at TLE epoch
Visualization TLE readout
Latitude8.77402°
Longitude-78.29765°
Altitude443.383 km
Speed7.648 km/s
Apparent Right ascension00h 42m 50s
Apparent Declination-18° 31' 38"
Sunlit
Object is in full shadow
Visualization observer readout
Local Sidereal Time09:35:12
Azimuth283.946° WNW
Elevation-44.485°
Doppler factor1
Orbital elements
Apogee altitude447.01 km
Perigee altitude445.062 km
Semi-major axis6,824.173 km
Eccentricity0.0001427
Inclination42.9992°
RAAN234.271°
Arg. of periapsis269.4732°
True anomaly90.61245°
Mean anomaly90.5961°
Eccentric anomaly90.60428°
Mean motion3.85007 °/min
BSTAR0.000056008
Orbital period93.5 mins
Loading maneuver chart data...
Loading historical data...
Loading historical data...
Loading historical data...
Loading historical data...
Loading historical data...
Loading historical data...
Loading historical data...

STARLINK-32494 Visibility forecast

Observer location: undefined°, undefined

Span
Click to sort rows by Start time (UTC) header in descending order
Start Az.
Max El. time (UTC)
Max El. Az.
Max El.
End time (UTC)
End Az.
6 mins2024-12-26 19:03:03.799Z216.487° SW2024-12-26 19:06:03.799Z149.018° SSE30.252°2024-12-26 19:09:03.799Z84.552° E
5 mins2024-12-26 20:42:03.799Z270.206° WNW2024-12-26 20:44:03.799Z356.464° N42.244°2024-12-26 20:47:03.799Z69.351° E
5 mins2024-12-26 22:20:03.799Z294.094° NW2024-12-26 22:22:03.799Z347.887° N37.449°2024-12-26 22:25:03.799Z79.55° E
5 mins2024-12-26 23:58:03.799Z282.908° WNW2024-12-27 00:00:03.799Z249.512° W40.998°2024-12-27 00:03:03.799Z121.169° SE
|